Hibbing, MN

4:17 AM CST on January 16, 2018 (GMT -0600)
Chisholm-hibbing

Weather History for KHIB - January, 2014

Change the Weather History Date:

Thursday, January 30, 2014

  Actual Average Record
Temperature  
Mean Temperature 2 °F -  
Max Temperature 12 °F 19 °F 42 °F (1989)
Min Temperature -11 °F -4 °F -29 °F (2004)
Degree Days  
Heating Degree Days 64    
Moisture  
Dew Point -9 °F    
Average Humidity 62    
Maximum Humidity 70    
Minimum Humidity 52    
Precipitation  
Precipitation 0.00 in - - ()
Sea Level Pressure  
Sea Level Pressure 29.77 in    
Wind  
Wind Speed 11 mph (NW)    
Max Wind Speed 16 mph    
Max Gust Speed 21 mph    
Visibility 10 miles    
Events      
Averages and records for this station are not official NWS values.
T = Trace of Precipitation, MM = Missing Value Source: NWS Daily Summary

Daily Weather History Graph

Daily Weather History Graph

Search for Another Location

Airport or City:

Trip Planner

Search our weather history database for the weather conditions in past years. The results will help you decide how hot, cold, wet, or windy it might be!

Date:

Astronomy

Jan. 30, 2014 Rise Set
Actual Time 7:39 AM CST 5:10 PM CST
Civil Twilight 7:06 AM CST 5:43 PM CST
Nautical Twilight 6:29 AM CST 6:20 PM CST
Astronomical Twilight 5:53 AM CST 6:56 PM CST
Moon 7:03 AM CST (1/30) 5:27 PM CST (1/30)
Length of Visible Light 10h 36m
Length of Day
9h 30m
Waning Crescent, 0% of the Moon is Illuminated
Jan 30
Waning Crescent
Jan 30
New
Feb 6
First Quarter
Feb 14
Full
Feb 22
Last Quarter

Hourly Weather History & Observations

Time (CST) Temp. Windchill Dew Point Humidity Pressure Visibility Wind Dir Wind Speed Gust Speed Precip Events Conditions
12:53 AM 12.0 °F -0.4 °F 1.0 °F 61% 29.61 in 10.0 mi NW 9.2 mph - N/A   Mostly Cloudy
1:53 AM 10.9 °F -2.6 °F 1.9 °F 67% 29.60 in 10.0 mi NNW 10.4 mph - N/A   Overcast
2:53 AM 10.0 °F -6.5 °F 1.0 °F 67% 29.61 in 10.0 mi NNW 15.0 mph - N/A   Overcast
3:53 AM 10.0 °F -2.9 °F 1.0 °F 67% 29.60 in 10.0 mi NNW 9.2 mph - N/A   Overcast
4:53 AM 9.0 °F -3.2 °F 1.0 °F 70% 29.62 in 10.0 mi NNW 8.1 mph - N/A   Overcast
5:53 AM 8.1 °F -6.2 °F -2.0 °F 64% 29.63 in 10.0 mi NW 10.4 mph - N/A   Overcast
6:53 AM 6.1 °F -8.7 °F -2.9 °F 67% 29.64 in 10.0 mi NNW 10.4 mph - N/A   Overcast
7:53 AM 3.9 °F -12.2 °F -5.1 °F 66% 29.67 in 10.0 mi NW 11.5 mph - N/A   Overcast
8:53 AM 1.9 °F -16.2 °F -8.0 °F 63% 29.71 in 10.0 mi NNW 13.8 mph - N/A   Partly Cloudy
9:53 AM -0.9 °F -19.9 °F -9.9 °F 66% 29.73 in 10.0 mi NW 13.8 mph - N/A   Scattered Clouds
10:53 AM -0.0 °F -18.7 °F -11.0 °F 60% 29.75 in 10.0 mi NNW 13.8 mph - N/A   Clear
11:53 AM -0.0 °F -20.1 °F -9.9 °F 63% 29.75 in 10.0 mi NW 16.1 mph - N/A   Clear
12:53 PM 1.9 °F -16.9 °F -9.9 °F 58% 29.74 in 10.0 mi NW 15.0 mph - N/A   Clear
1:53 PM 3.0 °F -14.1 °F -9.0 °F 57% 29.75 in 10.0 mi NW 12.7 mph - N/A   Partly Cloudy
2:53 PM 3.0 °F -16.1 °F -9.0 °F 57% 29.78 in 10.0 mi NW 16.1 mph - N/A   Partly Cloudy
3:53 PM 3.0 °F -16.1 °F -11.0 °F 52% 29.80 in 10.0 mi NW 16.1 mph - N/A   Clear
4:53 PM 1.0 °F -15.8 °F -11.9 °F 55% 29.83 in 10.0 mi WNW 11.5 mph 20.7 mph N/A   Clear
5:53 PM -0.9 °F -12.7 °F -14.1 °F 54% 29.86 in 10.0 mi WNW 5.8 mph - N/A   Clear
6:53 PM -2.9 °F -17.7 °F -14.1 °F 59% 29.89 in 10.0 mi WNW 8.1 mph - N/A   Clear
7:53 PM -6.0 °F -21.5 °F -16.1 °F 62% 29.92 in 10.0 mi WNW 8.1 mph - N/A   Clear
8:53 PM -7.1 °F -27.6 °F -18.0 °F 59% 29.95 in 10.0 mi WNW 13.8 mph - N/A   Clear
9:53 PM -9.0 °F -27.4 °F -18.0 °F 65% 29.99 in 10.0 mi WNW 10.4 mph - N/A   Clear
10:53 PM -9.9 °F -23.4 °F -18.0 °F 68% 30.01 in 10.0 mi West 5.8 mph - N/A   Clear
11:53 PM -11.0 °F -24.6 °F -18.9 °F 68% 30.02 in 10.0 mi WNW 5.8 mph - N/A   Clear